[Iaude] MPEC N100: 2023 QL1 [a=1.05,e=0.60,i=27.4,H=21.16]
    mpec at cfa.harvard.edu 
    mpec at cfa.harvard.edu
       
    Mon Jul  8 10:16:50 EDT 2024
    
    
  
M.P.E.C. 2024-N100                                 Issued 2024 July 8, 14:15 UT
     The Minor Planet Electronic Circulars contain information on unusual
         minor planets, routine data on comets and natural satellites,
         and occasional editorial announcements.  They are published
    on behalf of Division F of the International Astronomical Union by the
          Minor Planet Center, Smithsonian Astrophysical Observatory,
                          Cambridge, MA 02138, U.S.A.
			  
             Prepared using the Tamkin Foundation Computer Network
                              MPC at CFA.HARVARD.EDU
            URL https://www.minorplanetcenter.net/    ISSN 1523-6714
                                    2023 QL1                                    
                           Revision to MPEC 2023-Q53                            
Additional Observations:
     K23Q01L 0C2024 07 05.59803523 11 04.318-45 52 41.63         23.12GVEN100T14
     K23Q01L 0C2024 07 05.59947523 11 04.235-45 52 43.38         23.16GVEN100T14
     K23Q01L 0C2024 07 05.60091623 11 04.151-45 52 44.96         23.09GVEN100T14
     K23Q01L 0C2024 07 06.60394723 10 09.029-46 11 32.51         23.14GVEN100T14
     K23Q01L 0C2024 07 06.60538623 10 08.936-46 11 34.12         22.99GVEN100T14
     K23Q01L 0C2024 07 06.60682723 10 08.837-46 11 35.81         23.05GVEN100T14
Observer details:
T14 Canada-France-Hawaii Telescope, Maunakea.  Observer H. Januszewski.
    Measurer D. J. Tholen.  3.6-m f/4.1 reflector + 1024 x 2306 pixels
    Megacam.
First and last observations above in comparison with prediction:
Residuals in seconds of arc (or two decimals in degrees), reference and Delta-T
240705 T14 0.11- 0.17-    240706 T14 0.11- 0.17-    E2024-JO9   +0.03 days
Orbital elements:
2023 QL1                                            PHA, Earth MOID = 0.0111 AU
Epoch 2024 Mar. 31.0 TT = JDT 2460400.5                 Veres                   
M 136.45138              (2000.0)            P               Q                  
n   0.91195693     Peri.  125.39817     -0.26096830     -0.94944589             
a   1.0531409      Node   337.68412     +0.66728376     -0.04679909             
e   0.6027127      Incl.   27.35752     +0.69758722     -0.31042284             
P   1.08           H   21.16          G   0.15           U   2                  
Residuals in seconds of arc
230819 W94  0.4+  0.0     230822 W68  0.4-  0.2+    230827 M22  0.4+  0.1-
230819 W94  0.2-  0.5-    230822 W68  0.4-  0.3+    230827 M22  0.4-  0.1-
230819 W94  0.1-  0.9+    230822 W68  0.7+  0.2-    230827 M22  0.2-  0.1+
230819 X10  0.1-  0.2-    230823 L87  0.3-  0.2-    230827 M22  0.3+  0.2+
230819 X10  0.1+  0.0     230823 L87  0.4-  0.1+    230901 M21  0.6-  0.4-
230819 X10  0.3+  0.3+    230823 L87  0.2-  0.2+    230901 M21 (1.1-  0.3+)
230819 E23  0.1+  0.1+    230823 M22  0.3+  0.2+    230905 U52  0.5-  0.7-
230819 E23  0.5-  0.6+    230823 M22  0.1-  0.1-    230905 U52  0.6+  0.1+
230819 E23  0.3-  0.6+    230823 M22  0.3-  0.0     230905 U52  0.6+  0.8+
230820 X10  0.1-  0.0     230823 M22  0.2-  0.0     230906 U52  0.4+  0.3-
230820 X10  0.2-  0.0     230826 W88  0.3+  0.0     230906 U52  0.0   0.2+
230820 X10  0.1+  0.1+    230826 W88  0.3+  0.4-    230906 U52  0.5+  0.6+
230820 F52  0.0   0.0     230826 M22  0.1-  0.3-    240705 T14  0.0   0.1+
230820 F52  0.1-  0.0     230826 M22  0.1-  0.2-    240705 T14  0.0   0.0
230820 F52  0.1+  0.0     230826 M22  0.0   0.1-    240705 T14  0.0   0.0
230821 X10  0.0   0.1+    230827 M22  0.3-  0.2-    240706 T14  0.0   0.0
230821 X10  0.1-  0.1+    230827 W88  0.2+  0.3+    240706 T14  0.0   0.0
230821 X10  0.2+  0.0     230827 W88  0.1+  0.4+    240706 T14  0.1-  0.0
230822 W68  0.1+  0.1+    230827 W88  0.4+  0.3-
Ephemeris:
2023 QL1                 a,e,i = 1.05, 0.60, 27                  q = 0.4184
Date    TT    R. A. (2000) Decl.     Delta      r    Elong.  Phase     V
2024 06 08    23 07 05.6 -40 05 25   1.1062  1.6737   104.1    36.0    24.0
...
2024 06 23    23 14 58.2 -42 34 25   0.9356  1.6465   115.0    34.0    23.5
...
2024 07 01    23 13 59.8 -44 31 58   0.8479  1.6261   121.1    32.4    23.2
...
2024 07 07    23 09 45.5 -46 18 54   0.7852  1.6080   125.9    30.8    23.0
2024 07 08    23 08 41.3 -46 38 12   0.7751  1.6048   126.7    30.5    22.9
2024 07 09    23 07 30.1 -46 57 54   0.7651  1.6015   127.4    30.3    22.9
...
2024 07 15    22 57 37.5 -49 03 07   0.7075  1.5802   132.0    28.5    22.7
...
2024 07 23    22 35 20.6 -51 58 46   0.6388  1.5479   137.4    26.4    22.3
...
2024 08 07    21 16 48.4 -55 47 46   0.5438  1.4753   140.6    25.9    21.9
A. U. Tomatic                (C) Copyright 2024 MPC           M.P.E.C. 2024-N100
    
    
More information about the Iaude
mailing list